Home   Weather   Camrose   Past weeks
Flag for Canada

Past Weather in Camrose, Alberta, Canada — Yesterday and Last 2 Weeks

Now
46 °F

Passing clouds.


Feels Like: 41 °F
Forecast: 58 / 30 °F
Wind: 10 mph from South

Location: Edmonton International

Current Time: Oct 16, 2019 at 12:14:33 pm

Latest Report: Oct 16, 2019 at 11:00 am


Visibility: 20 mi

Pressure: 29.78 "Hg (27.20 "Hg at 744m altitude)

Humidity: 71%

Dew Point: 37 °F

Location of CamroseLocation

Past Weather in Camrose — Graph

°F

Camrose Temperature Yesterday

Maximum temperature yesterday: 41 °F (at 2:00 pm)
Minimum temperature yesterday: 34 °F (at 9:00 am)
Average temperature yesterday: 38 °F

High & Low Weather Summary for the Past Weeks

 TemperatureHumidityPressure
High66 °F (Oct 7, 3:00 pm)100% (Oct 3, 7:00 am)30.47 "Hg (Oct 3, 7:00 am)
Low16 °F (Oct 10, 5:00 am)25% (Oct 6, 2:00 pm)29.35 "Hg (Oct 7, 4:00 pm)
Average38 °F71%30.01 "Hg
* Reported Oct 1 11:00 am — Oct 16 11:00 am, Camrose. Weather by CustomWeather, © 2019

Note: Actual official high and low records may vary slightly from our data, if they occured in-between our weather recording intervals... More about our weather records

Advertising

Camrose Weather History for the Previous 24 Hours

Scroll right to see more
 ConditionsComfort  
Time TempWeatherWind HumidityBarometerVisibility
11:00 am
Wed, Oct 16
46 °FPassing clouds.10 mph71%29.78 "Hg20 mi
10:00 am39 °FPassing clouds.7 mph81%29.80 "Hg20 mi
9:00 am30 °FPassing clouds.6 mph100%29.82 "Hg20 mi
8:00 am27 °FPassing clouds.7 mph100%29.82 "Hg20 mi
7:00 am25 °FPassing clouds.3 mph93%29.82 "Hg20 mi
6:00 am27 °FPassing clouds.8 mph93%29.82 "Hg20 mi
5:00 am27 °FPassing clouds.5 mph100%29.82 "Hg15 mi
4:19 am27 °FIce fog.6 mph100%29.82 "Hg3 mi
4:03 am27 °FIce fog.5 mph100%29.82 "Hg1 mi
3:37 am27 °FIce fog.5 mph100%29.82 "Hg0 mi
2:57 am28 °FIce fog.5 mph100%29.81 "Hg2 mi
2:00 am30 °FPartly cloudy.3 mph100%29.79 "Hg20 mi
1:00 am34 °FPassing clouds.3 mph100%29.78 "Hg20 mi
12:00 am36 °FPassing clouds.5 mph93%29.77 "Hg20 mi
11:00 pm
Tue, Oct 15
37 °FPassing clouds.6 mph93%29.77 "Hg20 mi
10:00 pm39 °FMostly cloudy.3 mph93%29.77 "Hg20 mi
9:00 pm41 °FMostly cloudy.12 mph87%29.78 "Hg20 mi
8:24 pm39 °FMostly cloudy.13 mph93%29.78 "Hg20 mi
8:00 pm39 °FMostly cloudy.14 mph87%29.78 "Hg20 mi
7:00 pm39 °FLight rain. Passing clouds.17 mph81%29.80 "Hg20 mi
6:00 pm41 °FMostly cloudy.18 mph76%29.85 "Hg20 mi
5:19 pm41 °FLight rain. Mostly cloudy.15 mph76%29.89 "Hg20 mi
5:00 pm41 °FMostly cloudy.18 mph70%29.89 "Hg20 mi
4:00 pm41 °FCloudy.21 mph76%29.93 "Hg20 mi
3:00 pm41 °FOvercast.21 mph70%29.96 "Hg20 mi
2:00 pm41 °FMore clouds than sun.21 mph70%29.99 "Hg20 mi
1:00 pm39 °FCloudy.18 mph75%30.03 "Hg20 mi
12:00 pm39 °FOvercast.16 mph75%30.08 "Hg20 mi
Weather by CustomWeather, © 2019

See weather overview